This is the latest recevied weather packets stored in our database for station/object KI5RAB. If no packets are shown the sender has not sent any weather packets the latest 10 day(s).
| Time | Temp. | Humidity | Pressure | Rain* | Wind** | Luminosity | Snow |
|---|---|---|---|---|---|---|---|
| 1788129713 | 37.22° C | 41% | 1016 hPa | 0 mm | - | 254 W/m² | - |
| 1788129409 | 37.22° C | 42% | 1015.9 hPa | 0 mm | - | 280 W/m² | - |
| 1788129103 | 37.22° C | 41% | 1016.3 hPa | 0 mm | - | 286 W/m² | - |
| 1788128798 | 37.22° C | 41% | 1016.1 hPa | 0 mm | - | 297 W/m² | - |
| 1788128494 | 36.67° C | 41% | 1016.1 hPa | 0 mm | - | 313 W/m² | - |
| 1788128189 | 36.67° C | 43% | 1016.1 hPa | 0 mm | - | 340 W/m² | - |
| 1788127886 | 36.67° C | 43% | 1016.1 hPa | 0 mm | - | 352 W/m² | - |
| 1788127582 | 36.11° C | 43% | 1016.2 hPa | 0 mm | - | 364 W/m² | - |
| 1788127281 | 36.67° C | 43% | 1016.1 hPa | 0 mm | - | 388 W/m² | - |
| 1788126979 | 36.67° C | 42% | 1016.2 hPa | 0 mm | - | 417 W/m² | - |
| 1788126674 | 36.67° C | 43% | 1016.3 hPa | 0 mm | - | 418 W/m² | - |
| 1788126369 | 36.67° C | 42% | 1016.3 hPa | 0 mm | - | 432 W/m² | - |
| 1788126058 | 36.11° C | 42% | 1016.2 hPa | 0 mm | - | 438 W/m² | - |
| 1788125758 | 35.56° C | 43% | 1016.4 hPa | 0 mm | - | 456 W/m² | - |
| 1788125453 | 36.11° C | 42% | 1016.4 hPa | 0 mm | - | 75 W/m² | - |
| 1788125149 | 37.22° C | 42% | 1016.7 hPa | 0 mm | - | 481 W/m² | - |
| 1788124849 | 36.67° C | 42% | 1016.7 hPa | 0 mm | - | 498 W/m² | - |
| 1788124544 | 36.67° C | 44% | 1016.8 hPa | 0 mm | - | 501 W/m² | - |
| 1788124243 | 36.67° C | 44% | 1016.8 hPa | 0 mm | - | 530 W/m² | - |
| 1788123939 | 36.11° C | 44% | 1016.8 hPa | 0 mm | - | 532 W/m² | - |
| 1788123638 | 36.11° C | 44% | 1017 hPa | 0 mm | - | 540 W/m² | - |
| 1788123336 | 36.11° C | 43% | 1017 hPa | 0 mm | - | 559 W/m² | - |
| 1788123032 | 36.67° C | 42% | 1017 hPa | 0 mm | - | 563 W/m² | - |
| 1788122731 | 36.11° C | 46% | 1017.2 hPa | 0 mm | - | 582 W/m² | - |
| 1788122430 | 35.56° C | 45% | 1017.2 hPa | 0 mm | - | 610 W/m² | - |
* Rain latest hour (hover to see other rain measurements)
** Current wind speed in m/s (hover to see current wind gust speed)